User: anonymous   Login
Location: Cave
(41.8160°N, 12.9350°E)
Time: 06:39:57
(UTC+02:00)
Language:

ISS - Orbit

View from above orbital plane
View from above orbital plane
View from above satellite
View from above satellite

Ground track
Ground track

The orbit data is extracted from the following two-line orbital elements,

1 25544U 98067A   19233.50307538  .00016717  00000-0  10270-3 0  9028
2 25544  51.6408  37.2389 0007229 308.9726  51.0780 15.50385129 25381
Epoch (UTC): 21 August 2019 12:04:25
Eccentricity: 0.0007229
inclination: 51.6408°
perigee height: 410 km
apogee height: 420 km
right ascension of ascending node: 37.2389°
argument of perigee: 308.9726°
revolutions per day: 15.50385129
mean anomaly at epoch: 51.0780°
orbit number at epoch: 2538

The dashed part of the orbit path shows where the satellite is in the earth's shadow,  

DLR